DW2762 Weather Reports


Display with metric or nautical units.
time (UTC)temp
F
wind
direction
speed
MPH
gust
MPH
rain 1hr
in
rain 24hr
in
rain mn
in
humidity
%
barometer
mb
20260505010111 55 64 2.0 4.0 0.00 0.00 0.00 60 1010.9
20260505004611 56 20 2.0 3.0 0.00 0.00 0.00 60 1011.0
20260505003111 56 57 0.0 3.0 0.00 0.00 0.00 58 1011.1
20260505001611 56 32 2.0 4.0 0.00 0.00 0.00 58 1011.3
20260505000111 56 22 2.0 7.0 0.00 0.00 0.00 59 1011.4
20260504233111 56 343 2.0 3.0 0.00 0.00 0.00 60 1011.8
20260504231611 57 347 0.0 2.0 0.00 0.00 0.00 59 1011.7
20260504230111 57 38 3.0 5.0 0.00 0.00 0.00 59 1011.8
20260504224611 57 306 0.0 3.0 0.00 0.00 0.00 59 1012.0
20260504223110 57 309 2.0 3.0 0.00 0.00 0.00 60 1012.1
20260504221611 58 305 2.0 3.0 0.00 0.00 0.00 58 1012.2
20260504214610 60 312 2.0 3.0 0.00 0.00 0.00 55 1012.4
20260504213110 62 329 1.0 3.0 0.00 0.00 0.00 50 1012.6
20260504211612 63 117 3.0 8.0 0.00 0.00 0.00 49 1012.6
20260504210110 62 74 2.0 8.0 0.00 0.00 0.00 50 1012.5
20260504204610 62 64 1.0 6.0 0.00 0.00 0.00 53 1012.7
20260504203109 63 28 0.0 3.0 0.00 0.00 0.00 52 1012.8
20260504201610 64 65 2.0 5.0 0.00 0.00 0.00 49 1012.8
20260504200109 64 88 2.0 5.0 0.00 0.00 0.00 49 1012.9
20260504194610 64 81 4.0 8.0 0.00 0.00 0.00 50 1012.8
20260504191609 64 95 0.0 2.0 0.00 0.00 0.00 51 1012.9
20260504190109 64 74 0.0 0.0 0.00 0.00 0.00 51 1012.9
20260504184609 65 101 0.0 2.0 0.00 0.00 0.00 50 1012.7
20260504181609 67 143 0.0 2.0 0.00 0.00 0.00 48 1012.7
20260504180110 68 144 0.0 0.0 0.00 0.00 0.00 48 1012.5
20260504174609 70 166 0.0 1.0 0.00 0.00 0.00 46 1012.6
20260504173108 71 155 1.0 6.0 0.00 0.00 0.00 46 1012.6
20260504171609 71 213 1.0 4.0 0.00 0.00 0.00 45 1012.5
20260504170108 72 96 3.0 6.0 0.00 0.00 0.00 44 1012.4
20260504150112 78 166 4.0 11.0 0.00 0.00 0.00 40 1012.7
20260504140112 77 141 3.0 10.0 0.00 0.00 0.00 41 1013.4
20260504130111 76 154 5.0 14.0 0.00 0.00 0.00 45 1014.1
20260504120111 75 199 8.0 12.0 0.00 0.00 0.00 47 1014.5
20260504110110 73 161 3.0 6.0 0.00 0.00 0.00 51 1014.9
20260504100110 70 154 5.0 12.0 0.00 0.00 0.00 53 1015.7
20260504090110 67 143 3.0 7.0 0.00 0.00 0.00 56 1015.8
20260504081609 67 154 5.0 7.0 0.00 0.00 0.00 56 1015.7
20260504080109 65 195 1.0 7.0 0.00 0.00 0.00 57 1015.6
20260504070109 62 147 4.0 9.0 0.00 0.00 0.00 58 1015.4
20260504060109 59 128 2.0 8.0 0.00 0.00 0.00 61 1015.4
20260504050113 55 71 3.0 5.0 0.00 0.00 0.00 66 1015.3
20260504044614 53 165 2.0 4.0 0.00 0.00 0.00 70 1015.3
20260504043113 53 138 0.0 2.0 0.00 0.00 0.00 67 1015.3
20260504040113 52 78 4.0 8.0 0.00 0.00 0.00 66 1015.1
20260504034613 52 84 2.0 4.0 0.00 0.00 0.00 67 1015.4
20260504033113 51 81 1.0 3.0 0.00 0.00 0.00 67 1015.5
20260504031613 52 40 0.0 4.0 0.00 0.00 0.00 65 1015.4
20260504030112 53 110 0.0 1.0 0.00 0.00 0.00 64 1015.6
20260504024614 53 182 1.0 3.0 0.00 0.00 0.00 64 1015.5
20260504021612 53 95 0.0 2.0 0.00 0.00 0.00 63 1015.6
20260504020112 53 128 1.0 2.0 0.00 0.00 0.00 61 1015.5
20260504014612 53 143 0.0 2.0 0.00 0.00 0.00 61 1015.7
20260504013112 54 102 0.0 6.0 0.00 0.00 0.00 60 1015.5
20260504011612 53 201 0.0 4.0 0.00 0.00 0.00 59 1015.4